STARLINK-32587, 62180

Orbit data source: Space-Track

STARLINK-32587, 62180 is a payload satellite owned by SpaceX/Seattle (US) in LEO that was launched on Sat, 30 Nov 2024 UTC via an FALCON 9 launch vehicle from the Air Force Western Test Range (AFWTR). Payload-class satellites include a variety of spacecraft equipped with specific instruments for various scientific and technological missions. These include communications satellites like Starlink; space stations such as the ISS; scientific satellites like the Hubble; Earth observation satellites from companies like Planet Labs, Umbra, and HawkEye 360; GPS; miniature CubeSats for education and research; and military/defense satellites.

Loading next visibility...
Identifier
62180, 2024-225T
Orbit
LEO
Country
Flag of USUS
Related business
Manufacturer
SpaceX/Seattle
Mission
Operational Commercial Communications
Bus & Motor
STARLINK V2M, Unknown motor
Mass
730 kg wet, ~700 kg dry
Launch date (UTC)
2024-11-30 (1 year ago)
Launch vehicle
FALCON 9
Launch site
Air Force Western Test Range (AFWTR)
Object type
Payload
Rocket body
Debris
Shape & HBR
Box + 2 Pan, 17.7 m
Radar Cross Section
33.884 m², Large (>1 m²)

Expand to show TLE details & history
Last TLE update: 12 hours ago

TLE from 12 hours ago
0 STARLINK-32587
1 62180U 24225T   26062.75002315  .00050269  00000-0  41929-2 0  9990
2 62180  70.0021 179.2468 0003275 272.0673 233.8083 14.98308632  5792
Epoch: 2026-03-03T18:00Z
TLE epoch observation values (Epoch: 2026-03-03T18:00:02.000Z)
Latitude
31.91427°
Longitude
-85.31337°
Altitude
577.02 km
Speed
7.575 km/s
True Right ascension
23h 04m 52s
True Declination
31° 45' 22"
Sunlit
Object was in daylight at epoch
Visualization orbit readout
Latitude
Unknown
Longitude
Unknown
Altitude
Unknown
Speed
Unknown
Apparent Right ascension
Unknown
Apparent Declination
Unknown
Sunlit
N/A
Visualization observer readout
Local Sidereal Time
10:03:36
Azimuth
Unknown
Elevation
Unknown
Doppler factor
Unknown
Orbital elements
Apogee altitude
572.346 km
Perigee altitude
567.794 km
Semi-major axis
6,948.207 km
Eccentricity
0.00033
Inclination
70.0021°
RAAN
179.2468°
Arg. of periapsis
272.0673°
True anomaly
233.77802°
Mean anomaly
233.8083°
Eccentric anomaly
233.79316°
Mean motion
3.74743 °/min
Orbital period
96.07 mins
BSTAR
0.0041929
Loading maneuver chart data...
Computing Atmospheric mass density...
Loading historical data...
Loading historical data...
Loading historical data...
Loading historical data...
Loading historical data...
Loading historical data...
Loading historical data...

Documentation

Showing up to 5 results
|